| time (UTC) | temp C | wind direction | speed KPH | gust KPH | rain 1hr cm | rain 24hr cm | rain mn cm | humidity % | barometer mb |
| 20260505125019 | 7 | 0 | 3.2 | 4.8 | 0.00 | 0.00 | 0.00 | 65 | 1010.6 |
| 20260505124537 | 7 | 0 | 1.6 | 4.8 | 0.00 | 0.00 | 0.00 | 65 | 1010.4 |
| 20260505124020 | 7 | 0 | 0.0 | 6.4 | 0.00 | 0.00 | 0.00 | 65 | 1010.4 |
| 20260505123520 | 7 | 60 | 3.2 | 6.4 | 0.00 | 0.00 | 0.00 | 65 | 1010.6 |
| 20260505123048 | 7 | 59 | 4.8 | 6.4 | 0.00 | 0.00 | 0.00 | 65 | 1010.6 |
| 20260505122518 | 7 | 58 | 3.2 | 6.4 | 0.00 | 0.00 | 0.00 | 65 | 1010.6 |
| 20260505122018 | 7 | 58 | 3.2 | 4.8 | 0.00 | 0.00 | 0.00 | 66 | 1010.5 |
| 20260505121543 | 7 | 58 | 3.2 | 4.8 | 0.00 | 0.00 | 0.00 | 67 | 1010.4 |
| 20260505121020 | 7 | 58 | 1.6 | 4.8 | 0.00 | 0.00 | 0.00 | 67 | 1010.3 |
| 20260505120518 | 7 | 57 | 1.6 | 6.4 | 0.00 | 0.00 | 0.00 | 69 | 1010.2 |
| 20260505120052 | 7 | 57 | 3.2 | 6.4 | 0.00 | 0.00 | 0.00 | 68 | 1010.1 |
| 20260505115517 | 7 | 57 | 3.2 | 6.4 | 0.00 | 0.00 | 0.00 | 68 | 1010.1 |
| 20260505115019 | 6 | 55 | 1.6 | 4.8 | 0.00 | 0.00 | 0.00 | 68 | 1010.0 |
| 20260505114537 | 6 | 0 | 1.6 | 6.4 | 0.00 | 0.00 | 0.00 | 67 | 1009.8 |
| 20260505114019 | 6 | 55 | 3.2 | 6.4 | 0.00 | 0.00 | 0.00 | 67 | 1009.9 |
| 20260505113519 | 7 | 55 | 4.8 | 6.4 | 0.00 | 0.00 | 0.00 | 66 | 1009.9 |
| 20260505113035 | 7 | 56 | 3.2 | 6.4 | 0.00 | 0.00 | 0.00 | 65 | 1009.7 |
| 20260505112522 | 6 | 57 | 3.2 | 8.0 | 0.00 | 0.00 | 0.00 | 66 | 1009.7 |
| 20260505112019 | 6 | 56 | 4.8 | 8.0 | 0.00 | 0.00 | 0.00 | 65 | 1009.6 |
| 20260505111536 | 6 | 62 | 4.8 | 8.0 | 0.00 | 0.00 | 0.00 | 66 | 1009.5 |
| 20260505111022 | 6 | 67 | 4.8 | 6.4 | 0.00 | 0.00 | 0.00 | 66 | 1009.5 |
| 20260505110518 | 6 | 69 | 4.8 | 6.4 | 0.00 | 0.00 | 0.00 | 67 | 1009.5 |
| 20260505102018 | 8 | 71 | 0.0 | 4.8 | 0.00 | 0.00 | 0.00 | 62 | 1009.3 |
| 20260505101536 | 8 | 0 | 1.6 | 6.4 | 0.00 | 0.00 | 0.00 | 62 | 1009.2 |
| 20260505101018 | 8 | 71 | 3.2 | 8.0 | 0.00 | 0.00 | 0.00 | 63 | 1009.0 |
| 20260505100519 | 8 | 70 | 4.8 | 8.0 | 0.00 | 0.00 | 0.00 | 64 | 1008.9 |
| 20260505100037 | 8 | 67 | 4.8 | 8.0 | 0.00 | 0.00 | 0.00 | 64 | 1008.9 |
| 20260505095517 | 8 | 67 | 4.8 | 8.0 | 0.00 | 0.00 | 0.00 | 64 | 1008.9 |
| 20260505095023 | 8 | 64 | 4.8 | 8.0 | 0.00 | 0.00 | 0.00 | 63 | 1008.8 |
| 20260505094540 | 9 | 62 | 4.8 | 9.7 | 0.00 | 0.00 | 0.00 | 61 | 1008.9 |
| 20260505094019 | 9 | 71 | 4.8 | 11.3 | 0.00 | 0.00 | 0.00 | 59 | 1008.9 |
| 20260505093520 | 10 | 79 | 8.0 | 11.3 | 0.00 | 0.00 | 0.00 | 59 | 1008.7 |
| 20260505093037 | 10 | 80 | 6.4 | 11.3 | 0.00 | 0.00 | 0.00 | 59 | 1008.6 |
| 20260505092520 | 10 | 80 | 6.4 | 11.3 | 0.00 | 0.00 | 0.00 | 59 | 1008.7 |
| 20260505092017 | 10 | 95 | 3.2 | 6.4 | 0.00 | 0.00 | 0.00 | 59 | 1008.7 |
| 20260505091551 | 10 | 107 | 3.2 | 4.8 | 0.00 | 0.00 | 0.00 | 59 | 1008.6 |
| 20260505091018 | 10 | 107 | 3.2 | 4.8 | 0.00 | 0.00 | 0.00 | 58 | 1008.7 |
| 20260505090519 | 10 | 107 | 1.6 | 6.4 | 0.00 | 0.00 | 0.00 | 56 | 1008.8 |
| 20260505090035 | 11 | 107 | 3.2 | 6.4 | 0.00 | 0.00 | 0.00 | 55 | 1008.9 |
| 20260505085518 | 11 | 106 | 4.8 | 6.4 | 0.00 | 0.00 | 0.00 | 55 | 1008.9 |
| 20260505085020 | 11 | 82 | 3.2 | 4.8 | 0.00 | 0.00 | 0.00 | 54 | 1008.9 |
| 20260505084600 | 11 | 80 | 1.6 | 4.8 | 0.00 | 0.00 | 0.00 | 53 | 1009.0 |
| 20260505084017 | 11 | 80 | 1.6 | 6.4 | 0.00 | 0.00 | 0.00 | 53 | 1009.0 |
| 20260505083522 | 11 | 80 | 3.2 | 6.4 | 0.00 | 0.00 | 0.00 | 53 | 1009.0 |
| 20260505083058 | 11 | 80 | 3.2 | 6.4 | 0.00 | 0.00 | 0.00 | 52 | 1008.9 |
| 20260505082519 | 11 | 80 | 3.2 | 8.0 | 0.00 | 0.00 | 0.00 | 52 | 1008.9 |
| 20260505082018 | 12 | 80 | 4.8 | 8.0 | 0.00 | 0.00 | 0.00 | 52 | 1008.8 |
| 20260505081552 | 12 | 79 | 4.8 | 11.3 | 0.00 | 0.00 | 0.00 | 51 | 1008.8 |
| 20260505081020 | 12 | 79 | 4.8 | 11.3 | 0.00 | 0.00 | 0.00 | 51 | 1008.7 |
| 20260505080520 | 12 | 80 | 4.8 | 12.9 | 0.00 | 0.00 | 0.00 | 51 | 1008.7 |
| 20260505080045 | 12 | 80 | 8.0 | 12.9 | 0.00 | 0.00 | 0.00 | 51 | 1008.6 |
| 20260505075523 | 12 | 78 | 8.0 | 14.5 | 0.00 | 0.00 | 0.00 | 52 | 1008.6 |
| 20260505075019 | 12 | 78 | 11.3 | 14.5 | 0.00 | 0.00 | 0.00 | 52 | 1008.5 |
| 20260505074535 | 12 | 76 | 11.3 | 16.1 | 0.00 | 0.00 | 0.00 | 52 | 1008.5 |
| 20260505074018 | 12 | 78 | 11.3 | 16.1 | 0.00 | 0.00 | 0.00 | 50 | 1008.6 |
| 20260505073518 | 13 | 76 | 12.9 | 17.7 | 0.00 | 0.00 | 0.00 | 49 | 1008.5 |
| 20260505073049 | 13 | 74 | 12.9 | 17.7 | 0.00 | 0.00 | 0.00 | 49 | 1008.5 |
| 20260505072518 | 13 | 68 | 12.9 | 16.1 | 0.00 | 0.00 | 0.00 | 48 | 1008.5 |
| 20260505072020 | 13 | 76 | 12.9 | 16.1 | 0.00 | 0.00 | 0.00 | 48 | 1008.5 |
| 20260505071546 | 13 | 77 | 12.9 | 16.1 | 0.00 | 0.00 | 0.00 | 48 | 1008.5 |
| 20260505071019 | 13 | 83 | 12.9 | 16.1 | 0.00 | 0.00 | 0.00 | 49 | 1008.7 |
| 20260505070523 | 13 | 77 | 11.3 | 16.1 | 0.00 | 0.00 | 0.00 | 49 | 1008.6 |
| 20260505070044 | 13 | 75 | 11.3 | 14.5 | 0.00 | 0.00 | 0.00 | 49 | 1008.7 |
| 20260505065521 | 13 | 71 | 11.3 | 14.5 | 0.00 | 0.00 | 0.00 | 49 | 1008.5 |
| 20260505065020 | 12 | 72 | 11.3 | 14.5 | 0.00 | 0.00 | 0.00 | 50 | 1008.5 |
| 20260505064537 | 12 | 81 | 9.7 | 12.9 | 0.00 | 0.00 | 0.00 | 53 | 1008.5 |
| 20260505064022 | 11 | 77 | 6.4 | 11.3 | 0.00 | 0.00 | 0.00 | 55 | 1008.4 |
| 20260505063520 | 11 | 69 | 4.8 | 11.3 | 0.00 | 0.00 | 0.00 | 57 | 1008.5 |
| 20260505063046 | 11 | 75 | 6.4 | 11.3 | 0.00 | 0.00 | 0.00 | 58 | 1008.4 |
| 20260505062520 | 11 | 80 | 4.8 | 8.0 | 0.00 | 0.00 | 0.00 | 60 | 1008.4 |
| 20260505062018 | 10 | 79 | 3.2 | 4.8 | 0.00 | 0.00 | 0.00 | 61 | 1008.4 |
| 20260505061533 | 11 | 80 | 3.2 | 4.8 | 0.00 | 0.00 | 0.00 | 60 | 1008.2 |
| 20260505061020 | 11 | 79 | 1.6 | 4.8 | 0.00 | 0.00 | 0.00 | 59 | 1008.1 |
| 20260505060520 | 11 | 79 | 1.6 | 4.8 | 0.00 | 0.00 | 0.00 | 58 | 1008.0 |
| 20260505060056 | 11 | 79 | 3.2 | 4.8 | 0.00 | 0.00 | 0.00 | 58 | 1008.0 |
| 20260505055521 | 11 | 79 | 3.2 | 6.4 | 0.00 | 0.00 | 0.00 | 58 | 1007.9 |
| 20260505055019 | 11 | 79 | 3.2 | 6.4 | 0.00 | 0.00 | 0.00 | 58 | 1008.0 |
| 20260505054542 | 11 | 79 | 3.2 | 6.4 | 0.00 | 0.00 | 0.00 | 58 | 1008.0 |
| 20260505054021 | 11 | 79 | 3.2 | 6.4 | 0.00 | 0.00 | 0.00 | 58 | 1007.9 |
| 20260505053518 | 10 | 79 | 3.2 | 6.4 | 0.00 | 0.00 | 0.00 | 58 | 1007.9 |
| 20260505053037 | 11 | 79 | 3.2 | 6.4 | 0.00 | 0.00 | 0.00 | 59 | 1007.9 |
| 20260505052519 | 11 | 79 | 1.6 | 6.4 | 0.00 | 0.00 | 0.00 | 59 | 1007.9 |
| 20260505052019 | 11 | 79 | 1.6 | 4.8 | 0.00 | 0.00 | 0.00 | 57 | 1007.9 |
| 20260505051534 | 11 | 79 | 1.6 | 4.8 | 0.00 | 0.00 | 0.00 | 58 | 1007.9 |
| 20260505051021 | 11 | 0 | 1.6 | 6.4 | 0.00 | 0.00 | 0.00 | 58 | 1007.8 |
| 20260505050518 | 11 | 78 | 1.6 | 6.4 | 0.00 | 0.00 | 0.00 | 56 | 1007.7 |
| 20260505041549 | 13 | 171 | 0.0 | 6.4 | 0.00 | 0.00 | 0.00 | 55 | 1007.2 |
| 20260505041019 | 13 | 0 | 0.0 | 1.6 | 0.00 | 0.00 | 0.00 | 55 | 1007.1 |
| 20260505040526 | 13 | 0 | 0.0 | 1.6 | 0.00 | 0.00 | 0.00 | 54 | 1007.1 |
| 20260505040049 | 14 | 0 | 0.0 | 6.4 | 0.00 | 0.00 | 0.00 | 53 | 1007.1 |
| 20260505035522 | 14 | 0 | 1.6 | 11.3 | 0.00 | 0.00 | 0.00 | 53 | 1007.1 |
| 20260505035020 | 14 | 207 | 0.0 | 11.3 | 0.00 | 0.00 | 0.00 | 51 | 1007.0 |
| 20260505034541 | 14 | 207 | 8.0 | 11.3 | 0.00 | 0.00 | 0.00 | 51 | 1006.8 |
| 20260505034022 | 15 | 204 | 6.4 | 9.7 | 0.00 | 0.00 | 0.00 | 50 | 1006.8 |
| 20260505033520 | 15 | 204 | 3.2 | 6.4 | 0.00 | 0.00 | 0.00 | 49 | 1006.8 |
| 20260505033041 | 15 | 204 | 1.6 | 12.9 | 0.00 | 0.00 | 0.00 | 50 | 1006.9 |
| 20260505032521 | 15 | 205 | 4.8 | 16.1 | 0.00 | 0.00 | 0.00 | 50 | 1006.8 |
| 20260505032023 | 15 | 182 | 9.7 | 16.1 | 0.00 | 0.00 | 0.00 | 51 | 1006.7 |
| 20260505031540 | 15 | 178 | 9.7 | 17.7 | 0.00 | 0.00 | 0.00 | 50 | 1006.7 |
| 20260505031020 | 16 | 169 | 9.7 | 20.9 | 0.00 | 0.00 | 0.00 | 50 | 1006.6 |
| 20260505030518 | 16 | 159 | 14.5 | 20.9 | 0.00 | 0.00 | 0.00 | 51 | 1006.6 |
| 20260505030046 | 15 | 169 | 12.9 | 20.9 | 0.00 | 0.00 | 0.00 | 52 | 1006.6 |
| 20260505025522 | 15 | 151 | 12.9 | 19.3 | 0.00 | 0.00 | 0.00 | 52 | 1006.6 |
| 20260505025018 | 15 | 151 | 11.3 | 17.7 | 0.00 | 0.00 | 0.00 | 53 | 1006.4 |
| 20260505024535 | 15 | 152 | 12.9 | 16.1 | 0.00 | 0.00 | 0.00 | 54 | 1006.5 |
| 20260505024019 | 14 | 157 | 11.3 | 16.1 | 0.00 | 0.00 | 0.00 | 55 | 1006.5 |
| 20260505023520 | 15 | 154 | 9.7 | 12.9 | 0.00 | 0.00 | 0.00 | 54 | 1006.4 |
| 20260505023037 | 16 | 159 | 8.0 | 12.9 | 0.00 | 0.00 | 0.00 | 52 | 1006.5 |
| 20260505022519 | 17 | 171 | 8.0 | 11.3 | 0.00 | 0.00 | 0.00 | 48 | 1006.4 |
| 20260505022021 | 18 | 192 | 8.0 | 11.3 | 0.00 | 0.00 | 0.00 | 43 | 1006.4 |
| 20260505021539 | 18 | 211 | 6.4 | 9.7 | 0.00 | 0.00 | 0.00 | 42 | 1006.2 |
| 20260505021018 | 18 | 232 | 4.8 | 12.9 | 0.00 | 0.00 | 0.00 | 40 | 1006.2 |
| 20260505020518 | 19 | 252 | 6.4 | 16.1 | 0.00 | 0.00 | 0.00 | 39 | 1006.2 |
| 20260505020041 | 19 | 251 | 9.7 | 16.1 | 0.00 | 0.00 | 0.00 | 38 | 1006.2 |
| 20260505015521 | 20 | 259 | 11.3 | 16.1 | 0.00 | 0.00 | 0.00 | 37 | 1006.2 |
| 20260505015019 | 20 | 237 | 11.3 | 17.7 | 0.00 | 0.00 | 0.00 | 36 | 1006.2 |
| 20260505014601 | 20 | 241 | 12.9 | 19.3 | 0.00 | 0.00 | 0.00 | 34 | 1006.2 |
| 20260505014018 | 20 | 243 | 14.5 | 20.9 | 0.00 | 0.00 | 0.00 | 33 | 1006.2 |
| 20260505013520 | 20 | 260 | 12.9 | 20.9 | 0.00 | 0.00 | 0.00 | 32 | 1006.2 |
| 20260505013047 | 20 | 246 | 14.5 | 20.9 | 0.00 | 0.00 | 0.00 | 31 | 1006.4 |
| 20260505012523 | 20 | 256 | 14.5 | 20.9 | 0.00 | 0.00 | 0.00 | 30 | 1006.3 |
| 20260505012019 | 21 | 211 | 14.5 | 24.1 | 0.00 | 0.00 | 0.00 | 30 | 1006.4 |
| 20260505011540 | 21 | 256 | 16.1 | 24.1 | 0.00 | 0.00 | 0.00 | 29 | 1006.5 |
| 20260505011019 | 21 | 253 | 17.7 | 25.7 | 0.00 | 0.00 | 0.00 | 29 | 1006.5 |
| 20260505010519 | 21 | 268 | 17.7 | 25.7 | 0.00 | 0.00 | 0.00 | 29 | 1006.6 |
| 20260505010053 | 21 | 293 | 11.3 | 24.1 | 0.00 | 0.00 | 0.00 | 28 | 1006.5 |
| 20260505005519 | 21 | 257 | 16.1 | 24.1 | 0.00 | 0.00 | 0.00 | 28 | 1006.6 |
| 20260505005019 | 22 | 251 | 9.7 | 24.1 | 0.00 | 0.00 | 0.00 | 27 | 1006.6 |
| 20260505004548 | 22 | 255 | 14.5 | 24.1 | 0.00 | 0.00 | 0.00 | 27 | 1006.6 |
| 20260505004020 | 22 | 275 | 12.9 | 22.5 | 0.00 | 0.00 | 0.00 | 27 | 1006.7 |
| 20260505003518 | 22 | 253 | 12.9 | 22.5 | 0.00 | 0.00 | 0.00 | 26 | 1006.7 |
| 20260505003054 | 22 | 205 | 11.3 | 22.5 | 0.00 | 0.00 | 0.00 | 26 | 1006.7 |
| 20260505002518 | 22 | 260 | 8.0 | 17.7 | 0.00 | 0.00 | 0.00 | 25 | 1006.6 |
| 20260505002020 | 22 | 213 | 6.4 | 19.3 | 0.00 | 0.00 | 0.00 | 25 | 1006.7 |
| 20260505001541 | 22 | 231 | 4.8 | 19.3 | 0.00 | 0.00 | 0.00 | 25 | 1006.7 |
| 20260505001020 | 22 | 254 | 9.7 | 24.1 | 0.00 | 0.00 | 0.00 | 25 | 1006.8 |
| 20260505000519 | 22 | 288 | 9.7 | 24.1 | 0.00 | 0.00 | 0.00 | 24 | 1006.8 |
| 20260505000040 | 22 | 243 | 9.7 | 24.1 | 0.00 | 0.00 | 0.00 | 24 | 1007.0 |
| 20260504235519 | 22 | 297 | 11.3 | 17.7 | 0.00 | 0.00 | 0.00 | 24 | 1007.0 |
| 20260504235019 | 22 | 252 | 8.0 | 16.1 | 0.00 | 0.00 | 0.00 | 24 | 1006.8 |
| 20260504234536 | 22 | 240 | 6.4 | 16.1 | 0.00 | 0.00 | 0.00 | 24 | 1006.8 |
| 20260504234021 | 22 | 202 | 6.4 | 19.3 | 0.00 | 0.00 | 0.00 | 24 | 1006.8 |
| 20260504233520 | 22 | 211 | 8.0 | 19.3 | 0.00 | 0.00 | 0.00 | 23 | 1006.9 |
| 20260504233037 | 22 | 213 | 9.7 | 22.5 | 0.00 | 0.00 | 0.00 | 25 | 1007.1 |
| 20260504232522 | 22 | 208 | 8.0 | 22.5 | 0.00 | 0.00 | 0.00 | 23 | 1007.1 |
| 20260504232019 | 23 | 199 | 12.9 | 22.5 | 0.00 | 0.00 | 0.00 | 23 | 1007.2 |
| 20260504231540 | 23 | 246 | 8.0 | 14.5 | 0.00 | 0.00 | 0.00 | 25 | 1007.2 |
| 20260504231018 | 22 | 215 | 4.8 | 19.3 | 0.00 | 0.00 | 0.00 | 26 | 1007.3 |
| 20260504230521 | 23 | 186 | 6.4 | 19.3 | 0.00 | 0.00 | 0.00 | 23 | 1007.4 |
| 20260504230041 | 23 | 239 | 8.0 | 19.3 | 0.00 | 0.00 | 0.00 | 22 | 1007.5 |
| 20260504225523 | 23 | 306 | 8.0 | 16.1 | 0.00 | 0.00 | 0.00 | 24 | 1007.5 |
| 20260504225020 | 23 | 230 | 4.8 | 14.5 | 0.00 | 0.00 | 0.00 | 24 | 1007.5 |
| 20260504224537 | 22 | 299 | 4.8 | 17.7 | 0.00 | 0.00 | 0.00 | 25 | 1007.6 |
| 20260504224019 | 22 | 257 | 6.4 | 19.3 | 0.00 | 0.00 | 0.00 | 25 | 1007.6 |
| 20260504223521 | 22 | 256 | 8.0 | 19.3 | 0.00 | 0.00 | 0.00 | 26 | 1007.6 |
| 20260504223055 | 22 | 213 | 9.7 | 19.3 | 0.00 | 0.00 | 0.00 | 24 | 1007.8 |
| 20260504222520 | 23 | 240 | 8.0 | 16.1 | 0.00 | 0.00 | 0.00 | 24 | 1008.0 |
| 20260504222019 | 23 | 232 | 3.2 | 17.7 | 0.00 | 0.00 | 0.00 | 23 | 1008.0 |
| 20260504221543 | 23 | 218 | 3.2 | 17.7 | 0.00 | 0.00 | 0.00 | 23 | 1008.0 |
| 20260504221019 | 23 | 200 | 6.4 | 17.7 | 0.00 | 0.00 | 0.00 | 23 | 1008.0 |
| 20260504220519 | 23 | 336 | 4.8 | 27.4 | 0.00 | 0.00 | 0.00 | 23 | 1008.1 |
| 20260504220035 | 23 | 217 | 9.7 | 27.4 | 0.00 | 0.00 | 0.00 | 22 | 1008.2 |
| 20260504215520 | 23 | 296 | 12.9 | 27.4 | 0.00 | 0.00 | 0.00 | 24 | 1007.9 |
| 20260504215024 | 23 | 0 | 3.2 | 14.5 | 0.00 | 0.00 | 0.00 | 24 | 1008.2 |
| 20260504214538 | 23 | 187 | 3.2 | 19.3 | 0.00 | 0.00 | 0.00 | 24 | 1008.3 |
| 20260504214022 | 22 | 0 | 3.2 | 19.3 | 0.00 | 0.00 | 0.00 | 22 | 1008.4 |
| 20260504213519 | 22 | 282 | 9.7 | 17.7 | 0.00 | 0.00 | 0.00 | 22 | 1008.5 |
| 20260504213044 | 22 | 240 | 4.8 | 20.9 | 0.00 | 0.00 | 0.00 | 24 | 1008.5 |
| 20260504212521 | 22 | 169 | 9.7 | 24.1 | 0.00 | 0.00 | 0.00 | 25 | 1008.3 |
| 20260504212020 | 22 | 173 | 9.7 | 24.1 | 0.00 | 0.00 | 0.00 | 29 | 1008.6 |
| 20260504211603 | 22 | 161 | 11.3 | 20.9 | 0.00 | 0.00 | 0.00 | 25 | 1008.5 |
| 20260504211018 | 23 | 249 | 6.4 | 17.7 | 0.00 | 0.00 | 0.00 | 24 | 1008.6 |
| 20260504210519 | 23 | 194 | 9.7 | 17.7 | 0.00 | 0.00 | 0.00 | 28 | 1008.7 |
| 20260504210043 | 22 | 0 | 3.2 | 9.7 | 0.00 | 0.00 | 0.00 | 24 | 1008.7 |
| 20260504205520 | 22 | 190 | 3.2 | 12.9 | 0.00 | 0.00 | 0.00 | 26 | 1008.7 |
| 20260504205020 | 22 | 170 | 3.2 | 20.9 | 0.00 | 0.00 | 0.00 | 24 | 1008.8 |
| 20260504204535 | 22 | 254 | 4.8 | 20.9 | 0.00 | 0.00 | 0.00 | 22 | 1008.9 |
| 20260504204019 | 22 | 252 | 9.7 | 20.9 | 0.00 | 0.00 | 0.00 | 22 | 1008.9 |
| 20260504203521 | 22 | 0 | 1.6 | 19.3 | 0.00 | 0.00 | 0.00 | 23 | 1008.9 |
| 20260504203036 | 22 | 232 | 6.4 | 14.5 | 0.00 | 0.00 | 0.00 | 24 | 1009.0 |
| 20260504202519 | 22 | 265 | 1.6 | 16.1 | 0.00 | 0.00 | 0.00 | 30 | 1009.1 |
| 20260504202018 | 21 | 216 | 4.8 | 19.3 | 0.00 | 0.00 | 0.00 | 26 | 1009.1 |
| 20260504201539 | 21 | 198 | 9.7 | 19.3 | 0.00 | 0.00 | 0.00 | 29 | 1009.3 |
| 20260504201018 | 21 | 190 | 4.8 | 11.3 | 0.00 | 0.00 | 0.00 | 28 | 1009.2 |
| 20260504200518 | 21 | 161 | 3.2 | 19.3 | 0.00 | 0.00 | 0.00 | 28 | 1009.3 |
| 20260504200041 | 21 | 192 | 6.4 | 19.3 | 0.00 | 0.00 | 0.00 | 28 | 1009.3 |
| 20260504195522 | 21 | 190 | 12.9 | 19.3 | 0.00 | 0.00 | 0.00 | 29 | 1009.5 |
| 20260504195020 | 21 | 180 | 4.8 | 17.7 | 0.00 | 0.00 | 0.00 | 30 | 1009.5 |
| 20260504194545 | 21 | 183 | 4.8 | 20.9 | 0.00 | 0.00 | 0.00 | 29 | 1009.4 |
| 20260504194018 | 21 | 182 | 8.0 | 20.9 | 0.00 | 0.00 | 0.00 | 30 | 1009.4 |
| 20260504193520 | 21 | 184 | 1.6 | 16.1 | 0.00 | 0.00 | 0.00 | 30 | 1009.6 |
| 20260504193038 | 21 | 180 | 6.4 | 16.1 | 0.00 | 0.00 | 0.00 | 29 | 1009.5 |
| 20260504192520 | 21 | 123 | 3.2 | 14.5 | 0.00 | 0.00 | 0.00 | 30 | 1009.7 |
| 20260504192019 | 21 | 117 | 3.2 | 24.1 | 0.00 | 0.00 | 0.00 | 31 | 1009.7 |
| 20260504191537 | 21 | 160 | 9.7 | 25.7 | 0.00 | 0.00 | 0.00 | 33 | 1009.7 |
| 20260504191019 | 21 | 168 | 11.3 | 25.7 | 0.00 | 0.00 | 0.00 | 33 | 1009.7 |
| 20260504190519 | 20 | 169 | 6.4 | 17.7 | 0.00 | 0.00 | 0.00 | 32 | 1009.7 |
| 20260504190043 | 20 | 123 | 3.2 | 17.7 | 0.00 | 0.00 | 0.00 | 32 | 1009.8 |
| 20260504185519 | 21 | 168 | 6.4 | 14.5 | 0.00 | 0.00 | 0.00 | 30 | 1009.9 |
| 20260504185020 | 20 | 153 | 4.8 | 24.1 | 0.00 | 0.00 | 0.00 | 33 | 1010.1 |
| 20260504184545 | 20 | 78 | 6.4 | 24.1 | 0.00 | 0.00 | 0.00 | 32 | 1010.2 |
| 20260504184019 | 20 | 169 | 11.3 | 24.1 | 0.00 | 0.00 | 0.00 | 32 | 1010.1 |
| 20260504183519 | 20 | 170 | 11.3 | 20.9 | 0.00 | 0.00 | 0.00 | 31 | 1010.1 |
| 20260504183041 | 20 | 91 | 1.6 | 12.9 | 0.00 | 0.00 | 0.00 | 30 | 1010.1 |
| 20260504182520 | 20 | 80 | 6.4 | 12.9 | 0.00 | 0.00 | 0.00 | 32 | 1010.2 |
| 20260504182020 | 20 | 102 | 6.4 | 11.3 | 0.00 | 0.00 | 0.00 | 30 | 1010.5 |
| 20260504181542 | 20 | 49 | 4.8 | 11.3 | 0.00 | 0.00 | 0.00 | 32 | 1010.4 |
| 20260504181020 | 20 | 103 | 4.8 | 8.0 | 0.00 | 0.00 | 0.00 | 30 | 1010.6 |
| 20260504180519 | 20 | 103 | 1.6 | 6.4 | 0.00 | 0.00 | 0.00 | 29 | 1010.7 |
| 20260504180038 | 20 | 165 | 1.6 | 6.4 | 0.00 | 0.00 | 0.00 | 29 | 1010.7 |
| 20260504175519 | 20 | 0 | 1.6 | 8.0 | 0.00 | 0.00 | 0.00 | 30 | 1010.7 |
| 20260504175024 | 20 | 167 | 1.6 | 12.9 | 0.00 | 0.00 | 0.00 | 31 | 1010.7 |
| 20260504174537 | 20 | 169 | 4.8 | 12.9 | 0.00 | 0.00 | 0.00 | 35 | 1010.8 |
| 20260504174019 | 19 | 53 | 0.0 | 8.0 | 0.00 | 0.00 | 0.00 | 34 | 1010.8 |
| 20260504173519 | 19 | 53 | 1.6 | 9.7 | 0.00 | 0.00 | 0.00 | 35 | 1010.8 |
| 20260504173034 | 18 | 53 | 3.2 | 9.7 | 0.00 | 0.00 | 0.00 | 35 | 1010.9 |
| 20260504172519 | 18 | 161 | 3.2 | 9.7 | 0.00 | 0.00 | 0.00 | 35 | 1010.9 |
| 20260504172018 | 18 | 58 | 1.6 | 8.0 | 0.00 | 0.00 | 0.00 | 36 | 1011.0 |
| 20260504171542 | 17 | 0 | 1.6 | 11.3 | 0.00 | 0.00 | 0.00 | 37 | 1010.8 |
| 20260504171020 | 17 | 78 | 4.8 | 11.3 | 0.00 | 0.00 | 0.00 | 37 | 1010.9 |
| 20260504170520 | 17 | 75 | 3.2 | 8.0 | 0.00 | 0.00 | 0.00 | 39 | 1010.8 |
| 20260504151020 | 9 | 311 | 1.6 | 6.4 | 0.00 | 0.00 | 0.00 | 64 | 1011.2 |
| 20260504150521 | 8 | 300 | 1.6 | 4.8 | 0.00 | 0.00 | 0.00 | 66 | 1011.2 |
| 20260504141020 | 3 | 0 | 0.0 | 0.0 | 0.00 | 0.00 | 0.00 | 78 | 1011.2 |
| 20260504140521 | 2 | 0 | 0.0 | 0.0 | 0.00 | 0.00 | 0.00 | 79 | 1011.3 |